Home > Weather > Budapest > Past weeks

Flag for Hungary Weather for the Past 2 Weeks in Budapest, Hungary

Now
54 °F

Partly sunny.


Feels Like: 52 °F
Forecast: 42 / 47 °F
Wind: 7 mph from Southeast

Location: Ferenc Liszt International Airport

Current Time: Feb 14, 2016 at 4:44:02 PM

Latest Report: Feb 14, 2016 at 4:00 PM


Visibility: N/A

Pressure: 29.45 "Hg

Humidity: 100%

Dew point: 54 °F

Location of BudapestLocation

Historic Weather in Budapest — Graph

°F

Budapest Temperature Yesterday

Maximum temperature yesterday: 41 °F (at 12:00 AM)
Minimum temperature yesterday: 36 °F (at 11:30 PM)
Average temperature yesterday: 40 °F

High & Low Weather Summary for the Past Weeks

 TemperatureHumidityPressure
High55 °F (Feb 2, 12:00 PM)100% (Jan 30, 3:00 PM)30.39 "Hg (Jan 30, 3:00 PM)
Low23 °F (Feb 12, 3:30 AM)42% (Feb 5, 2:30 PM)29.18 "Hg (Feb 10, 11:00 AM)
Average41 °F86%29.90 "Hg
* Reported Jan 30 3:00 PM — Feb 14 3:30 PM, Budapest, Weather by CustomWeather, © 2016

Note: Actual official high and low records may vary slightly from our data, if they occured in-between our weather recording intervals... More about our weather records

Advertising

Budapest Weather History for the Previous 24 Hours

 ConditionsComfort  
Time TempWeatherWind HumidityBarometerVisibility
3:30 PM
Sun, Feb 14
55 °FPartly sunny.6 mph88%29.45 "HgN/A
3:00 PM55 °FSunny.7 mph88%29.45 "Hg10 mi
2:30 PM55 °FPartly sunny.8 mph88%29.45 "HgN/A
2:00 PM54 °FPartly sunny.9 mph94%29.42 "HgN/A
1:30 PM54 °FBroken clouds.10 mph94%29.45 "HgN/A
1:00 PM54 °FScattered clouds.12 mph88%29.45 "HgN/A
12:30 PM54 °FScattered clouds.13 mph94%29.45 "HgN/A
12:00 PM50 °FScattered clouds.8 mph100%29.45 "HgN/A
11:30 AM50 °FScattered clouds.8 mph100%29.45 "HgN/A
11:00 AM46 °FScattered clouds.7 mph100%29.45 "HgN/A
10:30 AM46 °FScattered clouds.5 mph82%29.45 "HgN/A
10:00 AM45 °FPartly sunny.3 mph87%29.45 "HgN/A
9:30 AM43 °FPartly sunny.6 mph87%29.47 "HgN/A
8:30 AM39 °FScattered clouds.6 mph93%29.45 "HgN/A
8:00 AM36 °FScattered clouds.6 mph100%29.45 "HgN/A
7:30 AM34 °FPassing clouds.5 mph93%29.45 "HgN/A
7:00 AM36 °FSunny.7 mph93%29.45 "Hg10 mi
6:30 AM36 °FPassing clouds.6 mph93%29.42 "HgN/A
6:00 AM37 °FPassing clouds.3 mph93%29.45 "HgN/A
5:30 AM36 °FPassing clouds.6 mph93%29.45 "HgN/A
5:00 AM37 °FPassing clouds.7 mph93%29.42 "HgN/A
4:30 AM37 °FPassing clouds.7 mph93%29.42 "HgN/A
4:00 AM37 °FPartly cloudy.7 mph93%29.42 "HgN/A
3:30 AM37 °FPassing clouds.8 mph93%29.42 "HgN/A
3:00 AM37 °FPassing clouds.7 mph93%29.42 "Hg4 mi
2:30 AM36 °FFog.6 mph100%29.42 "Hg2 mi
2:00 AM36 °FFog.6 mph100%29.45 "Hg3 mi
1:30 AM36 °FFog.5 mph100%29.45 "Hg2 mi
1:00 AM36 °FClear.5 mph93%29.42 "Hg4 mi
12:30 AM36 °FClear.6 mph93%29.42 "Hg5 mi
12:00 AM37 °FClear.5 mph93%29.42 "Hg5 mi
11:30 PM
Sat, Feb 13
36 °FPassing clouds.3 mph87%29.42 "HgN/A
10:30 PM41 °FPassing clouds.7 mph87%29.45 "HgN/A
10:00 PM41 °FOvercast.8 mph87%29.45 "HgN/A
9:30 PM41 °FOvercast.8 mph87%29.45 "Hg5 mi
9:00 PM41 °FOvercast.7 mph87%29.42 "Hg5 mi
8:30 PM41 °FOvercast.7 mph87%29.42 "Hg5 mi
8:00 PM41 °FOvercast.10 mph87%29.42 "Hg5 mi
7:30 PM41 °FMostly cloudy.7 mph93%29.42 "Hg5 mi
7:00 PM41 °FMostly cloudy.6 mph93%29.42 "Hg5 mi
6:30 PM41 °FFog.6 mph93%29.42 "Hg3 mi
6:00 PM41 °FFog.1 mph93%29.39 "Hg3 mi
5:30 PM41 °FFog.2 mph93%29.39 "Hg3 mi
5:00 PM41 °FBroken clouds.1 mph93%29.39 "Hg4 mi
4:30 PM41 °FPartly sunny.No wind93%29.39 "Hg4 mi
4:00 PM41 °FFog.3 mph100%29.36 "Hg3 mi
Weather by CustomWeather, © 2016

See weather overviewHow to use our weather pages